Location: Unspecified
(50.7693°N, 0.0000°E)
Time: 18:11:00
(UTC+00:00)

deb Explorer IX - Pass Details

Date: 21 June 2019
Orbit: 539 x 1112 km, 38.8° (Epoch: 15 July)

Event Time Altitude Azimuth Distance (km) Brightness Sun altitude
Rises 17:13:37 0° 258° (WSW) 3,934 ? 25.4°
Reaches altitude 10° 17:16:48 10° 247° (WSW) 2,967 ? 24.9°
Maximum altitude 17:22:51 29° 192° (SSW) 1,866 ? 24.0°
Drops below altitude 10° 17:28:33 10° 136° (SE) 2,781 ? 23.1°
Sets 17:31:27 0° 125° (SE) 3,649 ? 22.6°
